Date,TemperatureHighF,TemperatureAvgF,TemperatureLowF,DewpointHighF,DewpointAvgF,DewpointLowF,HumidityHigh,HumidityAvg,HumidityLow,PressureMaxIn,PressureMinIn,WindSpeedMaxMPH,WindSpeedAvgMPH,GustSpeedMaxMPH,PrecipitationSumIn
2013-2-14,44.0,36.1,21.1,32.1,27.6,15.3,90,72,47,30.30,29.79,5,2,19,0.00
2013-2-15,32.0,22.8,14.3,23.2,16.2,10.4,92,77,51,30.40,30.30,3,1,8,0.00
2013-2-16,33.3,23.1,7.0,25.7,18.0,4.2,92,81,70,30.39,30.06,2,0,6,0.00
2013-2-17,54.5,38.0,24.3,37.2,28.5,20.2,87,70,51,30.06,29.57,3,1,10,0.00
2013-2-18,43.9,31.2,20.7,34.0,24.8,14.4,93,77,63,30.09,29.56,7,3,18,0.00
2013-2-19,25.3,15.8,8.2,15.0,4.2,1.1,77,61,35,30.45,30.10,5,3,17,0.00
2013-2-20,25.6,18.3,5.9,10.4,6.1,-0.6,77,59,49,30.47,30.28,8,1,8,0.00
2013-2-21,25.8,22.9,21.7,21.1,16.0,9.7,92,76,56,30.31,29.89,12,1,12,0.00
2013-2-22,25.1,19.9,10.6,19.6,16.0,7.8,91,85,75,30.09,29.89,6,0,6,0.00
2013-2-23,39.4,21.8,5.6,28.1,16.3,-99.9,92,81,62,30.07,29.89,6,-3,6,0.00
2013-2-24,45.2,30.5,19.3,30.3,24.4,-99.9,93,80,55,30.11,29.94,4,-3,4,0.00
2013-2-25,36.2,29.1,25.2,29.0,25.3,22.7,93,86,74,30.12,29.95,9,1,9,0.00
2013-2-26,32.0,27.7,24.5,28.3,25.2,22.5,95,90,85,29.97,29.82,10,2,11,0.00
2013-2-27,36.8,29.3,23.0,27.0,23.1,-99.9,89,79,63,30.13,29.93,13,0,15,0.00
2013-2-28,33.7,28.3,25.7,26.7,23.7,21.1,92,83,72,30.27,30.13,12,3,12,0.00
2013-3-1,29.4,26.2,23.9,22.8,20.3,17.5,89,78,67,30.41,30.26,10,2,11,0.00
2013-3-2,36.9,27.2,16.7,24.1,18.7,-99.9,87,71,50,30.41,30.14,6,-3,6,0.00
2013-3-3,40.7,33.5,27.2,31.8,26.8,-99.9,86,77,67,30.14,29.74,13,-2,13,0.03
2013-3-4,42.4,34.6,29.8,30.8,28.0,22.1,91,77,62,30.05,29.68,12,1,12,0.00
2013-3-5,33.5,28.2,24.0,23.7,20.5,17.2,79,73,64,30.44,30.04,19,4,19,0.00
2013-3-6,38.6,30.2,21.6,25.2,21.7,17.0,83,71,54,30.48,30.28,6,1,10,0.00
2013-3-7,50.5,34.8,23.4,31.7,25.4,19.0,84,70,46,30.32,30.12,11,1,11,0.00
2013-3-8,54.6,41.1,30.4,40.3,32.8,25.6,92,73,55,30.20,29.91,9,1,9,0.00
2013-3-9,54.1,44.8,34.5,50.9,42.7,32.7,95,92,85,29.92,29.51,12,1,12,0.00
2013-3-10,35.2,28.7,23.0,33.6,27.1,21.3,95,94,92,29.98,29.67,17,5,17,0.06
2013-3-11,25.5,21.3,20.0,21.6,19.2,18.0,94,92,83,29.99,29.92,10,3,12,0.00